TimeCDT,TemperatureF,Dew PointF,Humidity,Sea Level PressureIn,VisibilityMPH,Wind Direction,Wind SpeedMPH,Gust SpeedMPH,PrecipitationIn,Events,Conditions,WindDirDegrees,DateUTC
12:56 AM,54.9,46.9,75,30.12,10.0,SSE,6.9,-,N/A,,Clear,150,2013-05-14 05:56:00
1:56 AM,54.0,45.0,72,30.11,10.0,SSE,8.1,-,N/A,,Clear,150,2013-05-14 06:56:00
2:56 AM,54.0,43.9,69,30.11,10.0,SSE,4.6,-,N/A,,Clear,150,2013-05-14 07:56:00
3:56 AM,54.0,43.9,69,30.09,10.0,SSE,6.9,-,N/A,,Clear,150,2013-05-14 08:56:00
4:56 AM,54.0,45.0,72,30.09,10.0,SSE,8.1,-,N/A,,Clear,150,2013-05-14 09:56:00
5:56 AM,54.9,45.0,69,30.09,10.0,SSE,9.2,-,N/A,,Clear,150,2013-05-14 10:56:00
6:56 AM,57.9,45.9,64,30.08,10.0,SSE,10.4,-,N/A,,Clear,160,2013-05-14 11:56:00
7:56 AM,65.8,52.0,61,30.07,10.0,South,12.7,-,N/A,,Clear,180,2013-05-14 12:56:00
8:56 AM,65.8,50.0,57,30.05,10.0,South,11.5,17.3,N/A,,Clear,190,2013-05-14 13:56:00
9:56 AM,72.0,54.9,55,30.03,10.0,South,11.5,17.3,N/A,,Clear,190,2013-05-14 14:56:00
10:56 AM,74.8,57.9,55,30.01,10.0,SSW,11.5,17.3,N/A,,Clear,200,2013-05-14 15:56:00
11:56 AM,79.0,59.9,52,29.99,10.0,SSW,15.0,23.0,N/A,,Clear,210,2013-05-14 16:56:00
12:56 PM,82.9,63.0,51,29.96,10.0,SSW,16.1,21.9,N/A,,Clear,210,2013-05-14 17:56:00
1:56 PM,84.9,61.0,44,29.94,10.0,SSW,17.3,23.0,N/A,,Clear,210,2013-05-14 18:56:00
2:56 PM,86.0,61.0,43,29.92,10.0,SW,16.1,23.0,N/A,,Clear,230,2013-05-14 19:56:00
3:56 PM,86.9,63.0,45,29.91,10.0,SW,17.3,23.0,N/A,,Clear,220,2013-05-14 20:56:00
4:56 PM,86.9,63.0,45,29.90,10.0,SSW,18.4,-,N/A,,Clear,210,2013-05-14 21:56:00
5:56 PM,86.0,61.0,43,29.89,10.0,SW,17.3,25.3,N/A,,Clear,220,2013-05-14 22:56:00
6:56 PM,82.9,61.0,47,29.88,10.0,SW,16.1,23.0,N/A,,Clear,230,2013-05-14 23:56:00
7:56 PM,79.0,61.0,54,29.89,10.0,SW,10.4,-,N/A,,Clear,220,2013-05-15 00:56:00
8:56 PM,75.9,59.9,57,29.90,10.0,SW,11.5,-,N/A,,Clear,220,2013-05-15 01:56:00
9:56 PM,74.8,59.9,60,29.91,10.0,SW,11.5,-,N/A,,Clear,220,2013-05-15 02:56:00
10:56 PM,73.9,61.9,66,29.92,10.0,SW,9.2,-,N/A,,Clear,220,2013-05-15 03:56:00
11:56 PM,72.9,61.9,68,29.93,10.0,SW,10.4,-,N/A,,Clear,220,2013-05-15 04:56:00